OBJECT AM, 62644

Orbit data source: Space-Track

You're viewing an Uncataloged Satellite

Recently launched and/or uncataloged satellites may have evolving metadata. Metadata may include but not limited to: Owner, Maufacturer, Bus, Motor, and Mission.

OBJECT AM, 62644 is a satellite in SSO that was launched on Tue, 14 Jan 2025 UTC via an FALCON 9 launch vehicle from the Air Force Western Test Range (AFWTR). Unknown objects in Earth's orbit typically refer to objects detected orbiting the Earth but have not yet been identified or cataloged. These objects could be anything from previously untracked satellites, spent rocket stages, debris from satellite collisions, or even natural meteoroids temporarily captured by Earth's gravity.

Loading next visibility...
Identifier
62644, 2025-009AM
Orbit
SSO
Last TLE update
1 day ago
Origin
Unknown
Manufacturer
Unknown (J)
Mission
Operational Commercial Imaging
Bus & Motor
CUBESAT 6U?, Unknown motor
Mass
~10 kg wet, ~10 kg dry
Launch date (UTC)
2025-01-14 (4 months ago)
Launch vehicle
FALCON 9
Launch site
Air Force Western Test Range (AFWTR)
Object type
Unknown
Shape & HBR
Box + 2 Pan, 0.3 m
Radar Cross Section
0.080 m², Small (<0.1 m²)

Expand to show TLE details & history

TLE from 1 day ago
0 OBJECT AM
1 62644U 25009AM  25139.48443949  .00010145  00000-0  44965-3 0  9995
2 62644  97.4333 220.4092 0001923 197.6071 162.5099 15.21807375 18929
Epoch: 2025-05-19T11:37Z
TLE epoch observation values (Epoch: 2025-05-19T11:37:35.571Z)
Latitude
-0.00002°
Longitude
168.6146°
Altitude
504.743 km
Speed
7.611 km/s
True Right ascension
14h 41m 38s
True Declination
0° 00' 00"
Sunlit
Object was in full shadow at epoch
Visualization orbit readout
Latitude
-59.20115°
Longitude
-22.74508°
Altitude
522.304 km
Speed
7.601 km/s
Apparent Right ascension
14h 05m 55s
Apparent Declination
-82° 14' 45"
Sunlit
Object is in daylight
Visualization observer readout
Local Sidereal Time
01:58:53
Azimuth
180.352° SSW
Elevation
-47.666°
Doppler factor
1
Orbital elements
Apogee altitude
498.676 km
Perigee altitude
496.031 km
Semi-major axis
6,875.491 km
Eccentricity
0.00019
Inclination
97.4333°
RAAN
220.4092°
Arg. of periapsis
197.6071°
True anomaly
Unknown
Mean anomaly
162.5099°
Eccentric anomaly
Unknown
Mean motion
3.80704 °/min
Orbital period
94.56 mins
BSTAR
0.00044965
Loading maneuver chart data...
Loading SW <> Apogee altitude chart data...
Loading historical data...
Loading historical data...
Loading historical data...
Loading historical data...
Loading historical data...
Loading historical data...
Loading historical data...

OBJECT AM Visibility forecast

Observer location: undefined°, undefined°

Span
Click to sort rows by Start time (UTC) header in descending order
Start Az.
Max El. time (UTC)
Max El. Az.
Max El.
End time (UTC)
End Az.
7 mins2025-05-20 18:09:56.464Z14.69° NNE2025-05-20 18:12:56.464Z38.898° NE42.668°2025-05-20 18:16:56.464Z189.15° SSW
4 mins2025-05-21 04:48:56.464Z111.372° ESE2025-05-21 04:50:56.464Z56.228° ENE24.774°2025-05-21 04:52:56.464Z17.424° NNE
|